Tracking 28790 objects as of 19-Apr-2024
HD Live streaming from Space Station
objects crossing your sky now

FENGYUN 1C DEB

Track FENGYUN 1C DEB now!
10-day predictions


NORAD ID: 35116
Int'l Code: 1999-025DKU
Perigee: 785.5 km
Apogee: 875.2 km
Inclination: 98.7 °
Period: 101.4 minutes
Semi major axis: 7201 km
RCS: 0.0063 m2 (small)
Launch date: May 10, 1999
Source: People's Republic of China (PRC)
Launch site: Taiyaun Space Center, China (TSC)

Note: This is SATELLITE DEBRIS
Your satellite tracking list
Your tracking list is empty




NASA's NSSDC Master Catalog

Two Line Element Set (TLE):
1 35116U 99025DKU 24108.34745170  .00005901  00000-0  27066-2 0  9995
2 35116  98.7010 156.4397 0062259   1.6314 358.5054 14.20630296513638
Source of the keplerian elements: AFSPC